Location: *
(38.3914°N, 75.0697°W)
Time: 18:19:18
(UTC+00:00)

STARLINK-1113 - Pass Details

Date: 17 February 2020
Orbit: 548 x 551 km, 53.0° (Epoch: 28 March)

Event Time Altitude Azimuth Distance (km) Brightness Sun altitude
Exits shadow 09:08:13 10° 135° (SE) 1,815 6.6 -32.1°
Reaches altitude 10° 09:08:14 10° 135° (SE) 1,814 6.6 -32.1°
Drops below altitude 10° 09:09:54 10° 111° (ESE) 1,818 6.9 -31.7°
Enters shadow 10:13:43 -61° 228° (SW) 11,751 10.3 -19.3°
Maximum altitude 10:48:02 88° 142° (SE) 554 3.6 -12.6°
